This is the latest recevied weather packets stored in our database for station/object KC3VCX. If no packets are shown the sender has not sent any weather packets the latest 10 day(s).
| Time | Temp. | Humidity | Pressure | Rain* | Wind** | Luminosity | Snow |
|---|---|---|---|---|---|---|---|
| 1777572330 | 7.22° C | 77% | 1015.1 hPa | 0 mm | - | 237 W/m² | - |
| 1777572027 | 7.22° C | 77% | 1015.1 hPa | 0 mm | - | 244 W/m² | - |
| 1777571726 | 6.67° C | 78% | 1015.2 hPa | 0 mm | - | 212 W/m² | - |
| 1777571425 | 6.67° C | 80% | 1015 hPa | 0 mm | - | 166 W/m² | - |
| 1777571121 | 6.67° C | 79% | 1015.1 hPa | 0 mm | - | 113 W/m² | - |
| 1777570816 | 6.67° C | 81% | 1014.9 hPa | 0 mm | - | 97 W/m² | - |
| 1777570513 | 6.67° C | 81% | 1015.2 hPa | 0 mm | - | 67 W/m² | - |
| 1777570210 | 6.67° C | 81% | 1015 hPa | 0 mm | - | 53 W/m² | - |
| 1777569904 | 7.22° C | 79% | 1014.7 hPa | 0 mm | - | 56 W/m² | - |
| 1777569601 | 7.22° C | 80% | 1014.6 hPa | 0 mm | - | 148 W/m² | - |
| 1777569297 | 7.22° C | 80% | 1015 hPa | 0 mm | - | 174 W/m² | - |
| 1777568994 | 6.67° C | 81% | 1015 hPa | 0 mm | - | 178 W/m² | - |
| 1777568690 | 6.67° C | 82% | 1014.7 hPa | 0 mm | - | 150 W/m² | - |
| 1777568388 | 7.22° C | 84% | 1015 hPa | 0 mm | - | 214 W/m² | - |
| 1777568085 | 6.67° C | 85% | 1015.2 hPa | 0 mm | - | 436 W/m² | - |
| 1777567781 | 6.67° C | 86% | 1015 hPa | 0 mm | - | 509 W/m² | - |
| 1777567477 | 6.11° C | 87% | 1015 hPa | 0 mm | - | 319 W/m² | - |
| 1777567175 | 6.11° C | 86% | 1014.7 hPa | 0 mm | - | 171 W/m² | - |
| 1777566873 | 6.67° C | 84% | 1014.7 hPa | 0 mm | - | 86 W/m² | - |
| 1777566571 | 7.22° C | 82% | 1014.6 hPa | 0 mm | - | 158 W/m² | - |
| 1777566268 | 7.22° C | 83% | 1014.5 hPa | 0 mm | - | 266 W/m² | - |
| 1777565966 | 6.67° C | 84% | 1014.7 hPa | 0 mm | - | 561 W/m² | - |
| 1777565661 | 6.11° C | 86% | 1014.7 hPa | 0 mm | - | 334 W/m² | - |
| 1777565357 | 6.11° C | 87% | 1014.6 hPa | 0 mm | - | 189 W/m² | - |
| 1777565053 | 6.11° C | 87% | 1014.5 hPa | 0 mm | - | 85 W/m² | - |
* Rain latest hour (hover to see other rain measurements)
** Current wind speed in m/s (hover to see current wind gust speed)